Location: Kapasiwin
(53.5500°N, 114.4500°W)
Time: 05:41:13
(UTC+00:00)

N. Korean satellite - Visible Passes

Search period start: 27 November 2021 00:00
Search period end: 07 December 2021 00:00
Orbit: 447 x 495 km, 97.3° (Epoch: 26 November)

Date Brightness Start Highest point End Pass type
(mag) Time Alt. Az. Time Alt. Az. Time Alt. Az.
27 Nov 6.9 00:00:59 10° S 00:04:34 70° WSW 00:08:06 10° NNW visible
27 Nov 7.0 12:52:48 10° NNE 12:56:13 57° E 12:59:33 10° S visible
27 Nov 8.1 14:26:56 10° NNW 14:29:02 15° WNW 14:31:07 10° W visible
28 Nov 9.8 01:07:31 10° SW 01:09:39 15° W 01:11:47 10° NW visible
28 Nov 8.5 12:24:38 10° NE 12:27:38 27° E 12:30:35 10° SSE visible
28 Nov 7.3 13:57:51 10° N 14:00:49 27° WNW 14:03:43 10° SW visible
29 Nov 8.9 00:37:51 10° SSW 00:40:59 28° W 00:44:05 10° NW visible
29 Nov 9.6 11:56:59 10° NE 11:58:56 14° E 12:00:51 10° SE visible
29 Nov 6.4 13:29:07 10° N 13:32:28 54° WNW 13:35:47 10° SSW visible
30 Nov 7.3 00:08:53 10° S 00:12:24 56° W 00:15:53 10° NNW visible
30 Nov 6.6 13:00:35 10° NNE 13:04:01 71° ESE 13:07:24 10° S visible
30 Nov 8.2 14:35:04 10° NNW 14:36:45 13° WNW 14:38:25 10° W visible
01 Dec 9.9 01:15:58 10° WSW 01:17:32 12° W 01:19:06 10° WNW visible
01 Dec 8.2 12:32:19 10° NNE 12:35:27 33° E 12:38:32 10° SSE visible
01 Dec 7.5 14:05:46 10° N 14:08:32 23° WNW 14:11:16 10° WSW visible
02 Dec 9.2 00:45:54 10° SSW 00:48:48 23° W 00:51:41 10° NW visible
02 Dec 9.3 12:04:26 10° NE 12:06:45 17° E 12:09:03 10° SE visible
02 Dec 6.7 13:36:56 10° N 13:40:12 44° WNW 13:43:26 10° SW visible
03 Dec 7.8 00:16:45 10° S 00:20:10 45° W 00:23:34 10° NNW visible
03 Dec 6.3 13:08:19 10° NNE 13:11:45 87° ESE 13:15:08 10° SSW visible
03 Dec 8.4 14:43:18 10° NW 14:44:23 11° WNW 14:45:27 10° WNW visible
04 Dec 10.2 01:24:54 10° W 01:25:21 10° W 01:25:48 10° W visible
04 Dec 7.7 12:39:57 10° NNE 12:43:11 40° E 12:46:23 10° S visible
04 Dec 7.8 14:13:38 10° NNW 14:16:10 20° WNW 14:18:41 10° WSW visible
05 Dec 9.5 00:53:57 10° SW 00:56:34 19° W 00:59:10 10° NW visible
05 Dec 9.1 12:11:53 10° NE 12:14:30 20° E 12:17:06 10° SE visible
05 Dec 6.9 13:44:41 10° N 13:47:50 36° WNW 13:50:58 10° SW visible
06 Dec 8.2 00:24:35 10° SSW 00:27:53 37° W 00:31:09 10° NNW visible
06 Dec 9.9 11:45:00 10° ENE 11:45:41 10° E 11:46:24 10° E visible
06 Dec 6.2 13:15:59 10° N 13:19:25 76° WNW 13:22:46 10° SSW visible
